Weather in Elizovo

Russia / Kamchatka Krai     53°10′58″N   158°23′18″E
temp.,
°C
wind,
m/s
gust,
m/s
humid.,
%
clouds,
%
prec.,
mm/h
press.,
hPa
HPBL,
m
28 february, sun
sun2800:00−11n3381100 0.1 100929
03:00−11n2385100 0.2 100743
06:00−11nnw3486100 0.5 100572
09:00−11nnw4580100 0.0 100493
12:00−7nnw4578100 0.0 1002328
15:00−5nw667482 0.0 1000605
18:00−9nw7107859 0.0 997310
21:00−13nnw697320 0.0 997134
1 march, mon
mon100:00−13nnw697314 0.0 995135
03:00−14nw78810 0.0 994110
06:00−15nnw67800 0.0 99494
09:00−14nnw57780 0.0 995111
12:00−10nw59780 0.0 996574
15:00−7w11137560 0.1 9971388
18:00−9wnw7138275 0.3 998847
21:00−12nw468754 0.1 1001118
2 march, tue
tue200:00−12nw4128377 0.3 1003347
03:00−12nw478793 0.2 1005179
06:00−13nw248673 0.3 100857
09:00−13nnw45740 0.0 101292
12:00−9wnw612710 0.0 10161196
15:00−8wnw10137167 0.1 10191881
18:00−10w6118075 0.3 1023539
21:00−15nnw338543 0.0 102756
3 march, wed
wed300:00−15nnw338272 0.0 102845
03:00−14n1176100 0.0 102627
06:00−13e2292100 0.4 102267
09:00−11ne2293100 2.9 1017103
12:00−8ene2391100 5.3 1009239
15:00−5e4695100 5.3 1000281
18:00−1ese101996100 13.0 991950
21:00+1se152399100 9.0 9811028
4 march, thu
thu400:00−2sw71297100 11.8 9811068
03:00−10wnw101887100 0.3 988980
06:00−14wnw11208488 0.4 9951010
09:00−15wnw11198151 0.0 10011297
12:00−12w15207865 0.1 10062079
15:00−11w142078100 0.1 10091980
18:00−10wsw2685100 0.3 1009332
21:00−10sse4108793 0.4 1008375